| time (UTC) | temp F | wind direction | speed MPH | gust MPH | rain 1hr in | rain 24hr in | rain mn in | humidity % | barometer mb |
| 20260504213912 | 69 | 225 | 6.0 | 9.0 | 0.00 | 0.00 | 0.00 | 35 | 1012.7 |
| 20260504213413 | 69 | 333 | 8.0 | 10.0 | 0.00 | 0.00 | 0.00 | 35 | 1012.7 |
| 20260504212911 | 69 | 301 | 6.0 | 5.0 | 0.00 | 0.00 | 0.00 | 35 | 1012.6 |
| 20260504212412 | 69 | 305 | 3.0 | 5.0 | 0.00 | 0.00 | 0.00 | 35 | 1012.5 |
| 20260504211913 | 69 | 318 | 4.0 | 3.0 | 0.00 | 0.00 | 0.00 | 34 | 1012.6 |
| 20260504211415 | 70 | 285 | 6.0 | 17.0 | 0.00 | 0.00 | 0.00 | 34 | 1012.6 |
| 20260504210916 | 70 | 291 | 4.0 | 3.0 | 0.00 | 0.00 | 0.00 | 35 | 1012.7 |
| 20260504210414 | 70 | 339 | 8.0 | 6.0 | 0.00 | 0.00 | 0.00 | 34 | 1012.6 |
| 20260504205915 | 70 | 25 | 2.0 | 4.0 | 0.00 | 0.00 | 0.00 | 33 | 1012.5 |
| 20260504205417 | 70 | 330 | 5.0 | 5.0 | 0.00 | 0.00 | 0.00 | 33 | 1012.6 |
| 20260504204918 | 70 | 305 | 7.0 | 7.0 | 0.00 | 0.00 | 0.00 | 33 | 1012.6 |
| 20260504204419 | 70 | 333 | 7.0 | 4.0 | 0.00 | 0.00 | 0.00 | 33 | 1012.6 |
| 20260504202420 | 70 | 311 | 6.0 | 9.0 | 0.00 | 0.00 | 0.00 | 33 | 1012.6 |
| 20260504201922 | 69 | 287 | 5.0 | 10.0 | 0.00 | 0.00 | 0.00 | 33 | 1012.6 |
| 20260504200922 | 69 | 332 | 3.0 | 4.0 | 0.00 | 0.00 | 0.00 | 30 | 1012.6 |
| 20260504195425 | 70 | 31 | 4.0 | 4.0 | 0.00 | 0.00 | 0.00 | 28 | 1012.6 |
| 20260504194923 | 70 | 10 | 8.0 | 5.0 | 0.00 | 0.00 | 0.00 | 28 | 1012.7 |
| 20260504194424 | 69 | 308 | 4.0 | 4.0 | 0.00 | 0.00 | 0.00 | 27 | 1012.6 |
| 20260504193926 | 69 | 84 | 5.0 | 0.0 | 0.00 | 0.00 | 0.00 | 28 | 1012.7 |
| 20260504193426 | 69 | 308 | 6.0 | 6.0 | 0.00 | 0.00 | 0.00 | 28 | 1012.7 |
| 20260504192426 | 69 | 10 | 4.0 | 2.0 | 0.00 | 0.00 | 0.00 | 28 | 1012.6 |
| 20260504191927 | 69 | 318 | 6.0 | 0.0 | 0.00 | 0.00 | 0.00 | 29 | 1012.7 |
| 20260504191428 | 69 | 32 | 3.0 | 2.0 | 0.00 | 0.00 | 0.00 | 27 | 1012.7 |
| 20260504190929 | 69 | 318 | 3.0 | 4.0 | 0.00 | 0.00 | 0.00 | 30 | 1012.7 |
| 20260504190444 | 69 | 346 | 4.0 | 3.0 | 0.00 | 0.00 | 0.00 | 28 | 1012.7 |
| 20260504185430 | 68 | 329 | 4.0 | 4.0 | 0.00 | 0.00 | 0.00 | 30 | 1012.6 |
| 20260504184931 | 68 | 41 | 4.0 | 4.0 | 0.00 | 0.00 | 0.00 | 31 | 1012.7 |
| 20260504183934 | 68 | 280 | 4.0 | 4.0 | 0.00 | 0.00 | 0.00 | 28 | 1012.7 |
| 20260504181935 | 68 | 302 | 7.0 | 9.0 | 0.00 | 0.00 | 0.00 | 28 | 1012.7 |
| 20260504180935 | 67 | 309 | 4.0 | 5.0 | 0.00 | 0.00 | 0.00 | 33 | 1012.6 |
| 20260504180436 | 67 | 328 | 6.0 | 7.0 | 0.00 | 0.00 | 0.00 | 36 | 1012.7 |
| 20260504174939 | 66 | 347 | 4.0 | 2.0 | 0.00 | 0.00 | 0.00 | 44 | 1012.6 |
| 20260504173938 | 66 | 39 | 4.0 | 3.0 | 0.00 | 0.00 | 0.00 | 39 | 1012.5 |
| 20260504173439 | 66 | 298 | 4.0 | 6.0 | 0.00 | 0.00 | 0.00 | 43 | 1012.5 |
| 20260504172940 | 66 | 280 | 7.0 | 3.0 | 0.00 | 0.00 | 0.00 | 41 | 1012.4 |
| 20260504172441 | 65 | 316 | 1.0 | 5.0 | 0.00 | 0.00 | 0.00 | 48 | 1012.2 |
| 20260504171940 | 65 | 287 | 4.0 | 4.0 | 0.00 | 0.00 | 0.00 | 47 | 1012.4 |
| 20260504171441 | 64 | 284 | 5.0 | 4.0 | 0.00 | 0.00 | 0.00 | 51 | 1012.2 |
| 20260504170942 | 64 | 308 | 3.0 | 2.0 | 0.00 | 0.00 | 0.00 | 51 | 1012.2 |
| 20260504170443 | 63 | 321 | 4.0 | 6.0 | 0.00 | 0.00 | 0.00 | 51 | 1012.2 |
| 20260504150949 | 54 | 332 | 3.0 | 1.0 | 0.00 | 0.00 | 0.00 | 69 | 1011.5 |
| 20260504150450 | 54 | 329 | 2.0 | 2.0 | 0.00 | 0.00 | 0.00 | 70 | 1011.4 |
| 20260504140954 | 44 | 114 | 0.0 | 0.0 | 0.00 | 0.00 | 0.00 | 89 | 1011.4 |
| 20260504140455 | 44 | 114 | 0.0 | 0.0 | 0.00 | 0.00 | 0.00 | 89 | 1011.4 |
| 20260504130459 | 42 | 114 | 0.0 | 0.0 | 0.00 | 0.00 | 0.00 | 87 | 1011.3 |
| 20260504110508 | 40 | 114 | 0.0 | 0.0 | 0.00 | 0.00 | 0.00 | 85 | 1011.4 |
| 20260504100514 | 42 | 114 | 0.0 | 0.0 | 0.00 | 0.00 | 0.00 | 82 | 1011.8 |
| 20260504081525 | 43 | 114 | 0.0 | 0.0 | 0.00 | 0.00 | 0.00 | 73 | 1012.2 |
| 20260504081023 | 43 | 114 | 0.0 | 0.0 | 0.00 | 0.00 | 0.00 | 72 | 1012.4 |
| 20260504050541 | 49 | 90 | 0.0 | 0.0 | 0.00 | 0.04 | 0.00 | 59 | 1013.0 |
| 20260504045042 | 50 | 90 | 0.0 | 0.0 | 0.00 | 0.04 | 0.00 | 57 | 1012.8 |
| 20260504044543 | 50 | 90 | 0.0 | 0.0 | 0.00 | 0.04 | 0.00 | 57 | 1012.8 |
| 20260504043545 | 51 | 90 | 0.0 | 0.0 | 0.00 | 0.04 | 0.00 | 57 | 1012.8 |
| 20260504042046 | 52 | 90 | 0.0 | 0.0 | 0.00 | 0.04 | 0.00 | 54 | 1012.8 |
| 20260504041547 | 53 | 90 | 0.0 | 0.0 | 0.00 | 0.04 | 0.00 | 53 | 1012.8 |
| 20260504041048 | 53 | 90 | 0.0 | 0.0 | 0.00 | 0.04 | 0.00 | 53 | 1012.8 |
| 20260504040549 | 54 | 90 | 0.0 | 0.0 | 0.00 | 0.04 | 0.00 | 52 | 1012.7 |
| 20260504040047 | 54 | 90 | 0.0 | 0.0 | 0.00 | 0.04 | 0.00 | 51 | 1012.7 |
| 20260504035548 | 55 | 90 | 0.0 | 0.0 | 0.00 | 0.04 | 0.00 | 50 | 1012.7 |
| 20260504035049 | 55 | 90 | 0.0 | 0.0 | 0.00 | 0.04 | 0.00 | 49 | 1012.7 |
| 20260504033550 | 57 | 90 | 0.0 | 0.0 | 0.00 | 0.04 | 0.00 | 46 | 1012.6 |
| 20260504033051 | 58 | 90 | 0.0 | 0.0 | 0.00 | 0.04 | 0.00 | 44 | 1012.5 |
| 20260504032053 | 59 | 90 | 0.0 | 0.0 | 0.00 | 0.04 | 0.00 | 40 | 1012.5 |
| 20260504030553 | 61 | 90 | 1.0 | 0.0 | 0.00 | 0.04 | 0.00 | 37 | 1012.5 |
| 20260504025555 | 61 | 86 | 0.0 | 0.0 | 0.00 | 0.04 | 0.00 | 36 | 1012.5 |
| 20260504025056 | 62 | 11 | 0.0 | 1.0 | 0.00 | 0.04 | 0.00 | 36 | 1012.5 |
| 20260504024056 | 63 | 49 | 0.0 | 0.0 | 0.00 | 0.04 | 0.00 | 35 | 1012.5 |
| 20260504023557 | 63 | 53 | 1.0 | 3.0 | 0.00 | 0.04 | 0.00 | 34 | 1012.5 |
| 20260504023058 | 63 | 28 | 0.0 | 0.0 | 0.00 | 0.04 | 0.00 | 34 | 1012.5 |
| 20260504022559 | 63 | 4 | 1.0 | 1.0 | 0.00 | 0.04 | 0.00 | 33 | 1012.6 |
| 20260504022057 | 63 | 35 | 0.0 | 2.0 | 0.00 | 0.04 | 0.00 | 33 | 1012.6 |
| 20260504021559 | 63 | 129 | 0.0 | 0.0 | 0.00 | 0.04 | 0.00 | 34 | 1012.6 |
| 20260504021100 | 64 | 6 | 1.0 | 3.0 | 0.00 | 0.04 | 0.00 | 33 | 1012.5 |
| 20260504015601 | 64 | 357 | 3.0 | 3.0 | 0.00 | 0.04 | 0.00 | 32 | 1012.7 |
| 20260504015102 | 64 | 91 | 3.0 | 2.0 | 0.00 | 0.04 | 0.00 | 31 | 1012.6 |
| 20260504014603 | 64 | 27 | 2.0 | 3.0 | 0.00 | 0.04 | 0.00 | 32 | 1012.7 |
| 20260504014104 | 64 | 18 | 0.0 | 1.0 | 0.00 | 0.04 | 0.00 | 33 | 1012.7 |
| 20260504013605 | 64 | 65 | 0.0 | 0.0 | 0.00 | 0.04 | 0.00 | 32 | 1012.7 |
| 20260504013103 | 64 | 8 | 0.0 | 0.0 | 0.00 | 0.04 | 0.00 | 32 | 1012.7 |
| 20260504012604 | 65 | 25 | 0.0 | 0.0 | 0.00 | 0.04 | 0.00 | 31 | 1012.7 |
| 20260504012106 | 65 | 31 | 1.0 | 0.0 | 0.00 | 0.04 | 0.00 | 30 | 1012.7 |
| 20260504011607 | 66 | 158 | 0.0 | 4.0 | 0.00 | 0.04 | 0.00 | 30 | 1012.7 |
| 20260504010606 | 67 | 183 | 1.0 | 1.0 | 0.00 | 0.04 | 0.00 | 28 | 1012.8 |
| 20260504010128 | 67 | 65 | 5.0 | 3.0 | 0.00 | 0.04 | 0.00 | 28 | 1012.8 |
| 20260504004611 | 67 | 14 | 3.0 | 4.0 | 0.00 | 0.04 | 0.00 | 29 | 1012.8 |
| 20260504004109 | 66 | 343 | 4.0 | 4.0 | 0.00 | 0.04 | 0.00 | 30 | 1013.0 |
| 20260504003610 | 67 | 145 | 2.0 | 2.0 | 0.00 | 0.04 | 0.00 | 29 | 1012.8 |
| 20260504003111 | 67 | 41 | 2.0 | 3.0 | 0.00 | 0.04 | 0.00 | 28 | 1012.8 |
| 20260504001612 | 68 | 176 | 2.0 | 4.0 | 0.00 | 0.04 | 0.00 | 24 | 1012.8 |
| 20260504000115 | 68 | 14 | 1.0 | 1.0 | 0.00 | 0.04 | 0.00 | 26 | 1012.8 |
| 20260503233617 | 69 | 162 | 5.0 | 3.0 | 0.00 | 0.04 | 0.00 | 26 | 1013.0 |
| 20260503233118 | 69 | 35 | 4.0 | 3.0 | 0.00 | 0.04 | 0.00 | 26 | 1013.0 |
| 20260503232617 | 69 | 113 | 3.0 | 3.0 | 0.00 | 0.04 | 0.00 | 26 | 1013.0 |
| 20260503232118 | 69 | 68 | 5.0 | 1.0 | 0.00 | 0.04 | 0.00 | 25 | 1013.0 |
| 20260503231619 | 69 | 15 | 4.0 | 2.0 | 0.00 | 0.04 | 0.00 | 26 | 1013.0 |
| 20260503230119 | 69 | 195 | 2.0 | 1.0 | 0.00 | 0.04 | 0.00 | 26 | 1013.2 |
| 20260503225620 | 69 | 45 | 5.0 | 5.0 | 0.00 | 0.04 | 0.00 | 27 | 1013.3 |
| 20260503225121 | 69 | 204 | 4.0 | 3.0 | 0.00 | 0.04 | 0.00 | 27 | 1013.3 |
| 20260503224622 | 69 | 238 | 3.0 | 2.0 | 0.00 | 0.04 | 0.00 | 26 | 1013.4 |
| 20260503222624 | 70 | 70 | 6.0 | 6.0 | 0.00 | 0.04 | 0.00 | 26 | 1013.6 |
| 20260503222125 | 69 | 311 | 3.0 | 3.0 | 0.00 | 0.04 | 0.00 | 25 | 1013.7 |
| 20260503221626 | 69 | 10 | 4.0 | 3.0 | 0.00 | 0.04 | 0.00 | 27 | 1013.7 |
| 20260503221124 | 68 | 129 | 1.0 | 3.0 | 0.00 | 0.04 | 0.00 | 26 | 1013.8 |
| 20260503220126 | 69 | 120 | 2.0 | 8.0 | 0.00 | 0.04 | 0.00 | 26 | 1014.0 |
| 20260503215627 | 70 | 115 | 3.0 | 9.0 | 0.00 | 0.04 | 0.00 | 29 | 1013.9 |
| 20260503214627 | 70 | 333 | 6.0 | 4.0 | 0.00 | 0.04 | 0.00 | 26 | 1013.9 |